Location: *
(43.9900°N, 3.4811°E)
Time: 15:54:10
(UTC+00:00)

Cosmos 1674 Rocket - Pass Details

Date: 25 August 2019
Orbit: 603 x 630 km, 82.5° (Epoch: 22 October)

Event Time Altitude Azimuth Distance (km) Brightness Sun altitude
Rises 19:19:19 0° 358° (N) 2,882 7.4 -8.4°
Reaches altitude 10° 19:21:40 10° 6° (N) 1,969 6.4 -8.8°
Maximum altitude 19:25:47 40° 76° (ENE) 906 4.1 -9.4°
Drops below altitude 10° 19:29:49 10° 147° (SSE) 1,946 5.6 -10.1°
Enters shadow 19:29:58 - 147° (SSE) 2,001 5.7 -10.1°
